CDT,Max TemperatureF,Mean TemperatureF,Min TemperatureF,Max Dew PointF,MeanDew PointF,Min DewpointF,Max Humidity, Mean Humidity, Min Humidity, Max Sea Level PressureIn, Mean Sea Level PressureIn, Min Sea Level PressureIn, Max VisibilityMiles, Mean VisibilityMiles, Min VisibilityMiles, Max Wind SpeedMPH, Mean Wind SpeedMPH, Max Gust SpeedMPH,PrecipitationIn, CloudCover, Events, WindDirDegrees
2012-10-1,66,50,32,46,41,30,93,62,32,30.01,29.96,29.87,10,10,10,14,8,18,0.00,1,,304
2012-10-2,73,52,30,37,33,28,100,50,20,29.95,29.81,29.68,10,10,10,17,6,29,0.00,0,,167
2012-10-3,57,46,35,45,40,28,93,69,41,30.01,29.91,29.77,10,9,1,14,5,22,0.00,2,Rain,338
2012-10-4,46,40,33,41,37,34,100,93,76,29.98,29.79,29.62,10,8,2,29,17,41,0.39,8,Rain-Snow-Thunderstorm,317
2012-10-5,37,34,32,34,32,30,100,94,87,30.18,30.00,29.90,10,7,1,28,20,39,0.02,8,Rain-Snow,289
2012-10-6,44,37,30,34,30,27,100,79,53,30.29,30.22,30.09,10,10,10,14,8,18,0.00,3,,279
2012-10-7,51,40,30,30,27,25,86,61,38,30.09,29.89,29.72,10,10,10,16,6,24,0.00,4,,190
2012-10-8,44,40,37,43,34,27,100,77,53,29.70,29.58,29.48,10,9,2,14,4,20,0.21,7,Rain,193
2012-10-9,42,38,33,41,34,30,93,87,75,29.91,29.73,29.58,10,10,2,16,13,30,0.01,7,Rain,282
2012-10-10,44,38,32,36,32,30,100,84,61,29.97,29.93,29.90,10,10,5,18,10,24,0.01,7,Rain,264
2012-10-11,39,34,30,36,28,25,100,77,61,30.35,30.13,29.91,10,10,10,17,10,26,0.00,3,,288
2012-10-12,44,30,17,30,22,18,100,70,37,30.37,30.20,29.89,10,10,10,12,3,20,0.00,1,,150
2012-10-13,57,44,30,41,32,21,93,65,50,29.89,29.74,29.67,10,10,7,8,4,,0.00,0,,125
2012-10-14,53,40,26,41,35,27,100,79,47,29.89,29.86,29.81,10,9,4,8,2,,0.00,5,,266
2012-10-15,57,40,23,43,34,21,100,75,51,29.89,29.79,29.57,10,9,0,12,3,21,0.00,3,Fog-Rain,151
2012-10-16,66,54,42,46,41,36,87,65,46,29.56,29.45,29.31,10,10,10,10,6,20,0.00,0,,187
2012-10-17,53,48,42,52,47,37,100,90,76,29.31,29.16,29.04,10,8,2,9,5,,0.24,6,Rain,118
2012-10-18,53,48,44,52,49,45,100,97,93,29.49,29.25,29.14,10,8,4,14,6,22,0.41,8,Rain,7
2012-10-19,48,45,42,48,44,41,100,98,93,29.72,29.65,29.50,10,6,0,16,8,23,0.08,8,Fog-Rain,341
2012-10-20,48,44,41,48,44,39,100,95,87,29.74,29.71,29.68,10,8,0,9,1,,0.00,7,Fog,158
2012-10-21,53,48,42,48,45,41,100,91,77,30.03,29.83,29.72,10,9,1,9,4,,0.04,5,Rain,177
2012-10-22,53,44,35,45,38,34,100,86,58,30.11,30.07,29.97,10,9,1,13,6,17,0.00,3,,38
2012-10-23,51,48,44,50,46,37,100,94,71,29.97,29.78,29.68,10,7,2,16,10,21,0.75,8,Rain-Thunderstorm,100
2012-10-24,51,44,35,52,42,34,100,94,87,29.96,29.88,29.72,10,8,2,14,8,18,0.02,8,Rain,273
2012-10-25,37,34,32,34,30,28,100,82,70,29.95,29.89,29.84,10,10,7,23,11,31,0.00,7,Snow,284
2012-10-26,35,32,30,30,25,21,87,72,60,30.22,30.14,29.96,10,10,10,24,19,32,0.00,8,,257
2012-10-27,33,30,26,23,18,12,75,62,41,30.32,30.26,30.21,10,10,10,16,10,22,0.00,6,,263
2012-10-28,33,28,23,25,22,18,93,80,60,30.32,30.30,30.28,10,9,3,8,3,,0.00,7,Snow,75
2012-10-29,42,35,28,34,29,25,100,78,57,30.29,30.25,30.23,10,10,5,9,7,,0.00,7,Snow,95
2012-10-30,48,37,26,30,27,21,93,76,50,30.26,30.21,30.11,10,10,10,12,6,,0.00,0,,94
2012-10-31,44,30,17,36,25,16,100,78,43,30.12,30.01,29.94,10,10,7,9,2,,0.00,4,,330